Location: Sternwarte ZA, Rosenfeld-Brittheim
(48.2889°N, 8.6789°E)
Time: 09:29:41
(UTC+02:00)

Amateur Radio Satellites - All Passes

Search period start: 22 August 2017 08:59
Search period end: 23 August 2017 08:59
Location: Sternwarte ZA, Rosenfeld-Brittheim, 48.2889°N, 8.6789°E

Satellite Date Start Highest point End Downlink Frequencies (MHz)
Time Altitude Azimuth
AAUSAT CUBESAT 2 22 Aug 09:09:14 09:13:13 40° 97° (E) 09:17:08 437.432
TIGRISAT 22 Aug 09:16:15 09:19:12 18° 62° (ENE) 09:22:07 435.000
CUTE 1.7 + AOD 2 22 Aug 09:17:13 09:21:26 53° 288° (WNW) 09:25:36 437.475
CUTE-I 22 Aug 09:21:21 09:25:35 25° 300° (WNW) 09:29:49 437.470
NUDT-PHONESAT 22 Aug 09:25:56 09:27:14 12° 300° (WNW) 09:28:32 437.300
UWE-3 22 Aug 09:30:29 09:34:43 70° 101° (ESE) 09:39:03 435.000/436.395/437.385
Oscar 11 22 Aug 09:35:53 09:39:47 31° 95° (E) 09:43:39 .
SO-50 22 Aug 09:39:46 09:42:26 15° 249° (WSW) 09:45:07 436.795
CUBEBUG 2 22 Aug 09:40:27 09:44:33 56° 288° (WNW) 09:48:45 437.445
PRISM 22 Aug 09:59:53 10:03:42 36° 68° (ENE) 10:07:32 437.425
O/OREOS (USA 219) 22 Aug 10:01:37 10:05:51 44° 109° (ESE) 10:10:08 437.305
HO-68 22 Aug 10:02:04 10:08:51 48° 298° (WNW) 10:15:37 435.675
SEEDS 22 Aug 10:03:07 10:06:49 29° 293° (WNW) 10:10:30 437.485
DELFI C3 22 Aug 10:04:56 10:07:22 15° 90° (E) 10:09:47 145.870
XW-2A 22 Aug 10:07:27 10:10:07 22° 293° (WNW) 10:12:47 145.665 - 145.685
ZACube-1 22 Aug 10:07:29 10:11:47 86° 288° (WNW) 10:16:10 437.345
ISS 22 Aug 10:07:33 10:09:26 14° 136° (SE) 10:11:19 437.550
Tancredo 1 22 Aug 10:12:52 10:15:39 42° 149° (SSE) 10:18:26 437.200
RS-15 22 Aug 10:12:53 10:21:36 24° 98° (E) 10:30:21 29.354- 29.394
nSIGHT-1 22 Aug 10:13:57 10:16:09 17° 138° (SE) 10:18:21 .
UNISAT 6 22 Aug 10:16:26 10:20:44 73° 73° (ENE) 10:25:00 437.425
FO-29 22 Aug 10:24:18 10:31:41 58° 260° (W) 10:38:20 435.910
AO-73 22 Aug 10:28:01 10:32:15 60° 287° (WNW) 10:36:32 145.935
EO-88 22 Aug 10:28:05 10:30:21 16° 91° (E) 10:32:37 145.990 - 145.960
AAUSAT CUBESAT 2 22 Aug 10:45:08 10:48:27 23° 296° (WNW) 10:51:45 437.432
M-CUBED/EXP-1 PRIME 22 Aug 10:47:12 10:51:14 31° 59° (ENE) 10:55:19 437.505
TIGRISAT 22 Aug 10:51:18 10:55:31 54° 259° (W) 10:59:44 435.000
QB50P2 22 Aug 10:55:05 10:57:19 14° 59° (ENE) 10:59:33 145.880/145.840
EO-79 22 Aug 10:55:36 10:57:36 13° 58° (ENE) 10:59:35 145.935-145.965
UWE-3 22 Aug 11:08:18 11:10:42 15° 300° (WNW) 11:13:08 435.000/436.395/437.385
Max Valier Satellite 22 Aug 11:09:21 11:13:01 58° 100° (E) 11:16:41 145.860
Oscar 11 22 Aug 11:12:03 11:15:53 31° 293° (WNW) 11:19:43 .
DUCHIFAT 1 22 Aug 11:22:56 11:25:53 19° 62° (ENE) 11:28:51 145.980
AIST 2D 22 Aug 11:25:06 11:28:26 44° 72° (ENE) 11:31:48 435.315
PRISM 22 Aug 11:35:38 11:39:04 24° 266° (W) 11:42:31 437.425
DELFI C3 22 Aug 11:38:34 11:42:27 52° 288° (WNW) 11:46:18 145.870
O/OREOS (USA 219) 22 Aug 11:41:42 11:45:27 26° 309° (NW) 11:49:14 437.305
ISS 22 Aug 11:42:10 11:45:27 72° 154° (SSE) 11:48:43 437.550
ZACube-1 22 Aug 11:45:54 11:47:25 12° 302° (WNW) 11:48:57 437.345
Tancredo 1 22 Aug 11:47:58 11:50:49 50° 348° (NNW) 11:53:40 437.200
AO-85 22 Aug 11:48:23 11:49:39 11° 20° (NNE) 11:50:56 145.980
nSIGHT-1 22 Aug 11:48:52 11:52:08 82° 156° (SSE) 11:55:25 .
HO-68 22 Aug 11:52:03 11:54:55 13° 320° (NW) 11:57:46 435.675
LO-87 22 Aug 11:53:29 11:56:11 20° 93° (E) 11:58:51 145.935 - 145.965
UNISAT 6 22 Aug 11:55:59 11:57:57 13° 272° (W) 11:59:54 437.425
EO-88 22 Aug 12:00:44 12:04:16 44° 289° (WNW) 12:07:46 145.990 - 145.960
NANOSAT C BR1 22 Aug 12:07:17 12:11:22 56° 72° (ENE) 12:15:29 145.865
Oscar 19 22 Aug 12:08:32 12:10:40 13° 52° (NE) 12:12:49 437.125/150
POLYITAN 1 22 Aug 12:13:08 12:17:19 71° 73° (ENE) 12:21:30 437.675
FO-29 22 Aug 12:16:03 12:17:54 11° 278° (W) 12:19:43 435.910
RS-15 22 Aug 12:19:51 12:32:05 77° 122° (ESE) 12:44:23 29.354- 29.394
M-CUBED/EXP-1 PRIME 22 Aug 12:21:12 12:25:28 39° 257° (WSW) 12:29:53 437.505
ESTCUBE 1 22 Aug 12:24:02 12:28:09 32° 96° (E) 12:32:12 437.505/2401.250
QB50P2 22 Aug 12:28:22 12:32:34 74° 257° (WSW) 12:36:47 145.880/145.840
EO-79 22 Aug 12:28:34 12:32:47 80° 259° (WSW) 12:37:00 145.935-145.965
Max Valier Satellite 22 Aug 12:44:30 12:46:25 14° 298° (WNW) 12:48:21 145.860
BEESAT 3 22 Aug 12:49:58 12:53:22 25° 38° (NE) 12:56:44 437.485
BUGSAT 1 22 Aug 12:52:05 12:55:57 43° 70° (ENE) 12:59:47 437.445
DUCHIFAT 1 22 Aug 12:57:10 13:01:13 50° 260° (W) 13:05:18 145.980
AIST 2D 22 Aug 13:00:00 13:01:53 14° 270° (W) 13:03:48 435.315
BEESAT 2 22 Aug 13:07:01 13:09:51 18° 31° (NNE) 13:12:41 435.950
AO-7 22 Aug 13:17:29 13:22:38 18° 39° (NE) 13:27:47 .
ISS 22 Aug 13:18:53 13:22:04 46° 353° (N) 13:25:15 437.550
Tancredo 1 22 Aug 13:23:29 13:26:18 43° 8° (N) 13:29:06 437.200
nSIGHT-1 22 Aug 13:25:32 13:28:42 45° 356° (N) 13:31:52 .
LO-87 22 Aug 13:26:30 13:29:40 31° 291° (WNW) 13:32:48 145.935 - 145.965
AO-85 22 Aug 13:27:19 13:31:12 35° 43° (NE) 13:35:19 145.980
Gurwin Techsat 1B 22 Aug 13:29:06 13:33:57 37° 65° (ENE) 13:38:49 435.225
Oscar 19 22 Aug 13:43:57 13:49:03 69° 73° (ENE) 13:54:14 437.125/150
NANOSAT C BR1 22 Aug 13:44:49 13:47:26 16° 270° (W) 13:50:03 145.865
POLYITAN 1 22 Aug 13:51:43 13:53:35 13° 272° (W) 13:55:28 437.675
SPROUT 22 Aug 13:58:26 14:02:42 77° 104° (ESE) 14:06:56 437.525
DX 1 22 Aug 13:59:06 14:02:16 19° 92° (E) 14:05:24 434.975-435.025
ESTCUBE 1 22 Aug 14:00:52 14:04:55 32° 294° (WNW) 14:08:57 437.505/2401.250
50 SAT 22 Aug 14:01:03 14:03:47 23° 95° (E) 14:06:30 437.505
VELOX 1 22 Aug 14:01:07 14:05:32 64° 101° (ESE) 14:09:53 145.980
BEESAT 3 22 Aug 14:27:17 14:31:11 50° 238° (WSW) 14:35:00 437.485
BUGSAT 1 22 Aug 14:28:32 14:31:30 19° 267° (W) 14:34:28 437.445
RS-15 22 Aug 14:33:49 14:45:42 49° 330° (NNW) 14:57:29 29.354- 29.394
YUBILEINY 22 Aug 14:43:49 14:48:26 16° 71° (ENE) 14:53:01 435.215
BEESAT 2 22 Aug 14:44:07 14:48:12 86° 48° (NE) 14:52:15 435.950
ISS 22 Aug 14:55:37 14:58:52 57° 14° (NNE) 15:02:06 437.550
Tancredo 1 22 Aug 14:58:42 15:01:35 64° 207° (SSW) 15:04:27 437.200
nSIGHT-1 22 Aug 15:02:08 15:05:23 62° 16° (NNE) 15:08:36 .
AO-7 22 Aug 15:05:37 15:13:44 58° 62° (ENE) 15:21:52 .
ITAMSAT 1 22 Aug 15:07:10 15:11:49 34° 64° (ENE) 15:16:28 435.822/435.867
AO-85 22 Aug 15:07:40 15:11:37 36° 240° (WSW) 15:15:49 145.980
Gurwin Techsat 1B 22 Aug 15:09:01 15:13:54 36° 264° (W) 15:18:48 435.225
UKube-1 22 Aug 15:09:44 15:14:02 65° 102° (ESE) 15:18:19 .
Oscar 19 22 Aug 15:25:23 15:28:53 18° 270° (W) 15:32:27 437.125/150
50 SAT 22 Aug 15:33:35 15:36:25 25° 293° (WNW) 15:39:14 437.505
DX 1 22 Aug 15:34:30 15:38:44 49° 290° (WNW) 15:42:55 434.975-435.025
SPROUT 22 Aug 15:35:51 15:38:02 14° 301° (WNW) 15:40:13 437.525
VELOX 1 22 Aug 15:38:37 15:41:31 17° 300° (WNW) 15:44:24 145.980
MOZHAYETS 4 22 Aug 15:43:45 15:46:50 17° 90° (E) 15:49:53
BEESAT 22 Aug 16:12:06 16:16:30 35° 97° (E) 16:20:51 436.000
BEESAT 2 22 Aug 16:23:45 16:25:19 12° 250° (WSW) 16:26:53 435.950
ISS 22 Aug 16:32:12 16:35:18 40° 213° (SSW) 16:38:22 437.550
YUBILEINY 22 Aug 16:34:49 16:43:31 69° 94° (E) 16:52:12 435.215
Tancredo 1 22 Aug 16:35:22 16:36:15 11° 224° (SW) 16:37:09 437.200
nSIGHT-1 22 Aug 16:38:40 16:41:39 34° 215° (SW) 16:44:37 .
ITAMSAT 1 22 Aug 16:46:24 16:51:14 38° 263° (W) 16:56:05 435.822/435.867
UKube-1 22 Aug 16:46:52 16:49:35 17° 301° (WNW) 16:52:19 .
ITUPSAT 1 22 Aug 16:47:16 16:52:03 72° 103° (ESE) 16:56:50 437.325
RS-15 22 Aug 16:50:44 17:01:52 36° 3° (N) 17:12:41 29.354- 29.394
AO-7 22 Aug 16:59:06 17:06:48 40° 262° (W) 17:14:33 .
HO-68 22 Aug 17:04:46 17:07:21 12° 40° (NE) 17:09:56 435.675
XW-2B 22 Aug 17:12:44 17:13:49 11° 59° (ENE) 17:14:52 145.730 - 145.750
MOZHAYETS 4 22 Aug 17:19:49 17:24:23 61° 288° (WNW) 17:28:56
DOVE 4 22 Aug 17:20:01 17:25:01 46° 70° (ENE) 17:29:53 437.250
KKS-1 22 Aug 17:20:57 17:23:30 15° 89° (E) 17:26:02 437.445
CUTE-I 22 Aug 17:27:51 17:31:56 23° 59° (ENE) 17:36:02 437.470
XW-2C 22 Aug 17:30:20 17:32:46 17° 63° (ENE) 17:35:15 145.795 - 145.815
XW-2F 22 Aug 17:40:45 17:43:31 20° 65° (ENE) 17:46:20 145.980 - 146.000
CUBESAT XI-V 22 Aug 17:43:40 17:48:20 55° 100° (E) 17:52:57 437.345
BEESAT 22 Aug 17:49:59 17:54:13 32° 295° (WNW) 17:58:25 436.000
STARS 22 Aug 17:55:09 17:57:30 14° 89° (E) 17:59:49 437.465
KAITUO 1B 22 Aug 18:02:41 18:05:51 27° 67° (ENE) 18:09:04 145.475/437.950
ITUPSAT 1 22 Aug 18:26:13 18:29:21 18° 302° (WNW) 18:32:30 437.325
O/OREOS (USA 219) 22 Aug 18:28:49 18:32:32 24° 50° (NE) 18:36:15 437.305
LilacSat-2 22 Aug 18:30:22 18:34:09 77° 75° (ENE) 18:37:59 437.200
NUDT-PHONESAT 22 Aug 18:32:26 18:36:01 55° 73° (ENE) 18:39:40 437.300
XW-2D 22 Aug 18:32:31 18:36:16 79° 75° (ENE) 18:40:05 145.860 - 145.880
YUBILEINY 22 Aug 18:33:26 18:41:04 32° 297° (WNW) 18:48:44 435.215
CUTE 1.7 + AOD 2 22 Aug 18:38:28 18:41:36 20° 63° (ENE) 18:44:46 437.475
XW-2B 22 Aug 18:43:38 18:47:23 81° 257° (WSW) 18:51:12 145.730 - 145.750
HO-68 22 Aug 18:46:39 18:53:22 45° 62° (ENE) 19:00:05 435.675
KKS-1 22 Aug 18:56:06 19:00:31 66° 288° (WNW) 19:04:53 437.445
UWE-3 22 Aug 18:58:04 18:59:12 11° 57° (ENE) 19:00:18 435.000/436.395/437.385
DOVE 4 22 Aug 18:58:22 19:02:51 28° 267° (W) 19:07:14 437.250
XW-2C 22 Aug 19:03:00 19:06:38 47° 261° (W) 19:10:19 145.795 - 145.815
RS-15 22 Aug 19:05:38 19:17:39 56° 36° (NE) 19:29:03 29.354- 29.394
CUTE-I 22 Aug 19:06:14 19:11:33 64° 258° (WSW) 19:16:53 437.470
CUBEBUG 2 22 Aug 19:06:31 19:09:41 21° 64° (ENE) 19:12:50 437.445
XW-2A 22 Aug 19:09:45 19:12:01 17° 65° (ENE) 19:14:17 145.665 - 145.685
XW-2F 22 Aug 19:13:56 19:17:26 37° 263° (W) 19:20:59 145.980 - 146.000
CUBESAT XI-V 22 Aug 19:21:47 19:25:20 21° 298° (WNW) 19:28:52 437.345
SEEDS 22 Aug 19:22:13 19:26:02 34° 68° (ENE) 19:29:53 437.485
STARS 22 Aug 19:29:58 19:34:19 69° 287° (WNW) 19:38:38 437.465
ZACube-1 22 Aug 19:32:52 19:35:01 14° 59° (ENE) 19:37:10 437.345
KAITUO 1B 22 Aug 19:36:40 19:39:49 26° 265° (W) 19:43:01 145.475/437.950
AO-73 22 Aug 19:52:07 19:55:02 19° 62° (ENE) 19:57:57 145.935
AAUSAT CUBESAT 2 22 Aug 20:02:26 20:06:22 42° 70° (ENE) 20:10:20 437.432
O/OREOS (USA 219) 22 Aug 20:07:49 20:12:13 50° 250° (WSW) 20:16:37 437.305
NUDT-PHONESAT 22 Aug 20:08:36 20:10:16 13° 271° (W) 20:11:58 437.300
CUTE 1.7 + AOD 2 22 Aug 20:13:02 20:17:08 48° 261° (W) 20:21:17 437.475
UWE-3 22 Aug 20:30:48 20:34:59 86° 73° (ENE) 20:39:09 435.000/436.395/437.385
Oscar 11 22 Aug 20:33:55 20:37:52 37° 69° (ENE) 20:41:52 .
STRAND 1 22 Aug 20:34:11 20:39:03 43° 98° (E) 20:43:54 437.568
HO-68 22 Aug 20:34:23 20:41:08 43° 262° (W) 20:47:55 435.675
XW-2A 22 Aug 20:41:28 20:44:31 33° 262° (W) 20:47:36 145.665 - 145.685
CUBEBUG 2 22 Aug 20:42:01 20:46:04 43° 261° (W) 20:50:05 437.445
DELFI C3 22 Aug 20:53:55 20:56:24 16° 62° (ENE) 20:58:53 145.870
SEEDS 22 Aug 20:58:13 21:01:46 26° 266° (W) 21:05:22 437.485
ZACube-1 22 Aug 21:06:39 21:10:46 72° 258° (WSW) 21:14:56 437.345
EO-88 22 Aug 21:10:02 21:11:45 13° 61° (ENE) 21:13:27 145.990 - 145.960
RS-15 22 Aug 21:18:44 21:30:32 63° 243° (WSW) 21:41:42 29.354- 29.394
AO-73 22 Aug 21:26:57 21:30:57 48° 261° (W) 21:34:59 145.935
FO-29 22 Aug 21:32:09 21:35:11 15° 85° (E) 21:38:06 435.910
AAUSAT CUBESAT 2 22 Aug 21:38:48 21:42:00 21° 268° (W) 21:45:13 437.432
Max Valier Satellite 22 Aug 21:51:26 21:54:54 43° 71° (ENE) 21:58:23 145.860
UNISAT 6 22 Aug 22:06:13 22:07:37 11° 87° (E) 22:09:02 437.425
Oscar 11 22 Aug 22:10:32 22:14:06 25° 267° (W) 22:17:42 .
STRAND 1 22 Aug 22:13:42 22:18:04 30° 297° (WNW) 22:22:27 437.568
DELFI C3 22 Aug 22:26:48 22:30:45 57° 260° (W) 22:34:43 145.870
LO-87 22 Aug 22:33:27 22:35:42 16° 63° (ENE) 22:37:57 145.935 - 145.965
TIGRISAT 22 Aug 22:39:08 22:42:34 22° 93° (E) 22:46:00 435.000
EO-88 22 Aug 22:41:22 22:44:58 61° 259° (W) 22:48:36 145.990 - 145.960
PRISM 22 Aug 23:12:25 23:16:11 33° 97° (E) 23:19:56 437.425
FO-29 22 Aug 23:15:32 23:21:14 82° 288° (WNW) 23:26:27 435.910
PCSat 22 Aug 23:15:33 23:20:51 58° 118° (ESE) 23:26:12 145.827
SPROUT 22 Aug 23:22:07 23:23:50 12° 57° (ENE) 23:25:32 437.525
Max Valier Satellite 22 Aug 23:26:40 23:28:58 16° 269° (W) 23:31:16 145.860
ESTCUBE 1 22 Aug 23:26:44 23:31:01 45° 69° (ENE) 23:35:21 437.505/2401.250
VELOX 1 22 Aug 23:28:09 23:30:07 13° 56° (NE) 23:32:06 145.980
RS-15 22 Aug 23:34:11 23:40:11 16° 267° (W) 23:46:05 29.354- 29.394
UNISAT 6 22 Aug 23:40:35 23:44:54 83° 285° (WNW) 23:49:18 437.425
SO-50 22 Aug 23:55:24 23:59:52 70° 125° (SE) 00:04:23 436.795
M-CUBED/EXP-1 PRIME 22 Aug 23:58:42 23:59:47 11° 91° (E) 00:00:50 437.505
LO-87 23 Aug 00:05:23 00:08:50 44° 261° (W) 00:12:16 145.935 - 145.965
QB50P2 23 Aug 00:10:47 00:13:01 14° 89° (E) 00:15:16 145.880/145.840
EO-79 23 Aug 00:11:04 00:12:59 13° 88° (E) 00:14:53 145.935-145.965
TIGRISAT 23 Aug 00:15:22 00:19:25 41° 291° (WNW) 00:23:31 435.000
AIST 2D 23 Aug 00:19:27 00:22:43 33° 97° (E) 00:25:58 435.315
UKube-1 23 Aug 00:34:31 00:36:15 12° 56° (NE) 00:37:58 .
50 SAT 23 Aug 00:35:51 00:38:05 16° 64° (ENE) 00:40:18 437.505
DUCHIFAT 1 23 Aug 00:37:52 00:40:54 19° 92° (E) 00:43:56 145.980
YUBILEINY 23 Aug 00:47:19 00:48:44 10° 41° (NE) 00:50:11 435.215
PRISM 23 Aug 00:47:54 00:51:21 26° 295° (WNW) 00:54:47 437.425
SPROUT 23 Aug 00:54:49 00:59:04 89° 264° (W) 01:03:21 437.525
DX 1 23 Aug 00:57:44 01:01:27 28° 64° (ENE) 01:05:10 434.975-435.025
PCSat 23 Aug 00:59:46 01:04:35 31° 319° (NW) 01:09:26 145.827
VELOX 1 23 Aug 01:01:25 01:05:53 87° 71° (ENE) 01:10:22 145.980
FO-29 23 Aug 01:02:15 01:05:21 15° 309° (NW) 01:08:19 435.910
ESTCUBE 1 23 Aug 01:04:28 01:08:02 23° 267° (W) 01:11:37 437.505/2401.250
UNISAT 6 23 Aug 01:19:31 01:20:56 11° 303° (WNW) 01:22:22 437.425
NANOSAT C BR1 23 Aug 01:23:12 01:27:22 62° 101° (E) 01:31:31 145.865
POLYITAN 1 23 Aug 01:29:43 01:33:57 81° 104° (ESE) 01:38:11 437.675
M-CUBED/EXP-1 PRIME 23 Aug 01:30:29 01:34:55 89° 304° (NW) 01:39:01 437.505
NO-84 23 Aug 01:31:06 01:33:30 23° 137° (SE) 01:35:50 435.350 FM
SO-50 23 Aug 01:37:02 01:40:46 24° 326° (NW) 01:44:29 436.795
EO-79 23 Aug 01:45:02 01:49:14 71° 286° (WNW) 01:53:25 145.935-145.965
QB50P2 23 Aug 01:45:04 01:49:15 65° 286° (WNW) 01:53:26 145.880/145.840
BEESAT 23 Aug 01:49:03 01:49:35 10° 52° (NE) 01:50:08 436.000
Oscar 19 23 Aug 01:52:41 01:56:15 18° 90° (E) 01:59:48 437.125/150
AIST 2D 23 Aug 01:53:05 01:55:44 20° 294° (WNW) 01:58:22 435.315
BUGSAT 1 23 Aug 02:05:01 02:08:53 43° 99° (E) 02:12:44 437.445
UKube-1 23 Aug 02:07:15 02:11:35 87° 72° (ENE) 02:15:57 .
50 SAT 23 Aug 02:07:15 02:10:28 38° 261° (W) 02:13:42 437.505
DUCHIFAT 1 23 Aug 02:12:48 02:16:48 46° 290° (WNW) 02:20:48 145.980
ITUPSAT 1 23 Aug 02:21:32 02:24:51 19° 59° (ENE) 02:28:11 437.325
DX 1 23 Aug 02:33:29 02:37:31 36° 262° (W) 02:41:34 434.975-435.025
YUBILEINY 23 Aug 02:40:29 02:48:40 42° 68° (ENE) 02:56:46 435.215
VELOX 1 23 Aug 02:41:31 02:42:57 11° 273° (W) 02:44:23 145.980
PCSat 23 Aug 02:47:30 02:49:46 12° 344° (NNW) 02:52:03 145.827
MOZHAYETS 4 23 Aug 02:48:52 02:52:36 26° 64° (ENE) 02:56:22
NANOSAT C BR1 23 Aug 03:00:02 03:02:38 16° 300° (WNW) 03:05:14 145.865
AO-7 23 Aug 03:06:08 03:09:01 12° 82° (E) 03:11:54 .
M-CUBED/EXP-1 PRIME 23 Aug 03:06:19 03:08:36 14° 310° (NW) 03:10:48 437.505
POLYITAN 1 23 Aug 03:07:09 03:09:10 13° 302° (WNW) 03:11:09 437.675
NO-84 23 Aug 03:07:56 03:10:42 47° 334° (NNW) 03:13:29 435.350 FM
CUBESAT XI-V 23 Aug 03:16:14 03:18:12 13° 55° (NE) 03:20:11 437.345
Gurwin Techsat 1B 23 Aug 03:20:44 03:26:04 68° 103° (ESE) 03:31:21 435.225
SO-50 23 Aug 03:21:35 03:22:49 11° 350° (N) 03:24:02 436.795
BEESAT 23 Aug 03:21:44 03:26:25 62° 71° (ENE) 03:31:08 436.000
Oscar 19 23 Aug 03:30:53 03:36:05 70° 288° (WNW) 03:41:15 437.125/150
BUGSAT 1 23 Aug 03:41:02 03:43:59 20° 297° (WNW) 03:46:56 437.445
UKube-1 23 Aug 03:47:03 03:48:13 11° 273° (W) 03:49:25 .
ITUPSAT 1 23 Aug 03:57:30 04:02:13 65° 258° (WSW) 04:06:58 437.325
KKS-1 23 Aug 04:22:00 04:25:31 23° 62° (ENE) 04:29:02 437.445
BEESAT 3 23 Aug 04:23:45 04:23:51 10° 108° (ESE) 04:23:57 437.485
MOZHAYETS 4 23 Aug 04:25:16 04:29:34 41° 262° (W) 04:33:55
PCSat 23 Aug 04:34:10 04:35:47 11° 11° (N) 04:37:24 145.827
YUBILEINY 23 Aug 04:37:22 04:45:42 52° 271° (W) 04:53:59 435.215
NO-84 23 Aug 04:46:17 04:48:34 21° 356° (N) 04:50:53 435.350 FM
CUBESAT XI-V 23 Aug 04:50:08 04:54:47 80° 75° (ENE) 04:59:31 437.345
STARS 23 Aug 04:54:44 04:58:04 21° 62° (ENE) 05:01:23 437.465
ITAMSAT 1 23 Aug 04:54:53 05:00:00 56° 101° (E) 05:05:04 435.822/435.867
AO-7 23 Aug 04:55:25 05:03:39 59° 104° (ESE) 05:11:48 .
BEESAT 23 Aug 05:01:23 05:04:36 18° 269° (W) 05:07:52 436.000
Gurwin Techsat 1B 23 Aug 05:01:34 05:05:31 22° 302° (WNW) 05:09:27 435.225
SO-50 23 Aug 05:03:26 05:05:18 12° 15° (NNE) 05:07:11 436.795
Oscar 19 23 Aug 05:12:15 05:14:29 13° 308° (NW) 05:16:43 437.125/150
AO-85 23 Aug 05:26:00 05:29:14 25° 117° (ESE) 05:32:28 145.980
BEESAT 3 23 Aug 05:56:41 06:00:41 81° 128° (SE) 06:04:46 437.485
KKS-1 23 Aug 05:57:31 06:01:49 45° 261° (W) 06:06:08 437.445
BEESAT 2 23 Aug 06:15:40 06:19:29 45° 121° (ESE) 06:23:23 435.950
PCSat 23 Aug 06:16:46 06:21:14 25° 36° (NE) 06:25:40 145.827
STRAND 1 23 Aug 06:17:17 06:20:13 16° 55° (NE) 06:23:09 437.568
NO-84 23 Aug 06:23:56 06:26:33 30° 18° (NNE) 06:29:16 435.350 FM
STARS 23 Aug 06:29:51 06:34:06 48° 260° (W) 06:38:23 437.465
CUBESAT XI-V 23 Aug 06:30:28 06:32:47 13° 273° (W) 06:35:05 437.345
XW-2C 23 Aug 06:32:50 06:34:59 14° 90° (E) 06:37:06 145.795 - 145.815
ITAMSAT 1 23 Aug 06:35:01 06:39:07 24° 300° (WNW) 06:43:13 435.822/435.867
YUBILEINY 23 Aug 06:39:21 06:40:15 10° 294° (WNW) 06:41:09 435.215
XW-2F 23 Aug 06:42:46 06:45:22 17° 91° (E) 06:47:57 145.980 - 146.000
SO-50 23 Aug 06:43:03 06:47:09 32° 39° (NE) 06:51:16 436.795
AO-7 23 Aug 06:48:34 06:56:09 41° 305° (NW) 07:03:41 .
DOVE 4 23 Aug 06:52:56 06:57:31 69° 101° (ESE) 07:01:48 437.250
KAITUO 1B 23 Aug 07:03:44 07:06:50 23° 94° (E) 07:09:54 145.475/437.950
AO-85 23 Aug 07:05:44 07:09:26 40° 316° (NW) 07:13:12 145.980
CUTE-I 23 Aug 07:19:33 07:24:31 38° 97° (E) 07:29:27 437.470
NUDT-PHONESAT 23 Aug 07:32:40 07:36:18 46° 99° (E) 07:39:56 437.300
LilacSat-2 23 Aug 07:33:55 07:37:49 71° 102° (ESE) 07:41:41 437.200
XW-2D 23 Aug 07:35:17 07:39:08 71° 102° (ESE) 07:42:58 145.860 - 145.880
BEESAT 3 23 Aug 07:35:47 07:38:46 19° 327° (NNW) 07:41:46 437.485
XW-2B 23 Aug 07:46:25 07:50:16 90° 342° (NNW) 07:54:08 145.730 - 145.750
FO-29 23 Aug 07:48:22 07:52:33 17° 52° (NE) 07:56:29 435.910
STRAND 1 23 Aug 07:53:34 07:58:41 88° 75° (ENE) 08:03:49 437.568
BEESAT 2 23 Aug 07:53:54 07:57:24 28° 321° (NW) 08:00:57 435.950
CUTE 1.7 + AOD 2 23 Aug 07:54:24 07:57:51 23° 93° (E) 08:01:16 437.475
HO-68 23 Aug 07:57:36 08:03:56 33° 94° (E) 08:10:13 435.675
PCSat 23 Aug 07:59:48 08:05:16 81° 238° (WSW) 08:10:41 145.827
XW-2A 23 Aug 08:01:02 08:01:59 11° 89° (E) 08:02:56 145.665 - 145.685
NO-84 23 Aug 08:01:09 08:04:03 55° 216° (SW) 08:07:09 435.350 FM
XW-2C 23 Aug 08:05:43 08:09:29 53° 288° (WNW) 08:13:15 145.795 - 145.815
XW-2F 23 Aug 08:16:03 08:19:42 43° 289° (WNW) 08:23:21 145.980 - 146.000
UWE-3 23 Aug 08:17:47 08:19:53 13° 89° (E) 08:21:58 435.000/436.395/437.385
SO-50 23 Aug 08:23:24 08:27:47 47° 239° (WSW) 08:32:11 436.795
CUBEBUG 2 23 Aug 08:28:44 08:32:21 27° 95° (E) 08:36:01 437.445
DOVE 4 23 Aug 08:31:49 08:34:37 16° 302° (WNW) 08:37:19 437.250
SEEDS 23 Aug 08:37:24 08:41:26 39° 97° (E) 08:45:26 437.485
KAITUO 1B 23 Aug 08:37:28 08:40:52 31° 291° (WNW) 08:44:15 145.475/437.950
AO-7 23 Aug 08:43:13 08:46:41 13° 329° (NNW) 08:50:10 .
O/OREOS (USA 219) 23 Aug 08:47:45 08:49:10 11° 97° (E) 08:50:35 437.305
AO-85 23 Aug 08:49:36 08:50:56 11° 339° (NNW) 08:52:16 145.980
ZACube-1 23 Aug 08:51:43 08:54:34 17° 91° (E) 08:57:26 437.345
